Home   Weather   Düren   Past weeks

Flag for Germany Past Weather in Düren, North Rhine-Westphalia, Germany — Yesterday and Last 2 Weeks

Now
28 °F

Passing clouds.


Feels Like: 28 °F
Forecast: 28 / 44 °F
Wind: 2 mph from Southeast

Location: Noervenich

Current Time: Dec 6, 2016 at 4:12:38 am

Latest Report: Dec 6, 2016 at 3:20 am


Visibility: N/A

Pressure: 30.36 "Hg

Humidity: 93%

Dew Point: 27 °F

Location of DürenLocation

Past Weather in Düren — Graph

°F

Düren Temperature Yesterday

Maximum temperature yesterday: 39 °F (at 2:20 pm)
Minimum temperature yesterday: 27 °F (at 11:20 pm)
Average temperature yesterday: 31 °F

High & Low Weather Summary for the Past Weeks

 TemperatureHumidityPressure
High57 °F (Nov 21, 1:20 pm)100% (Nov 23, 5:20 am)30.57 "Hg (Nov 23, 5:20 am)
Low19 °F (Nov 30, 2:20 am)45% (Nov 30, 2:20 pm)29.50 "Hg (Nov 21, 1:20 pm)
Average39 °F86%30.18 "Hg
* Reported Nov 21 2:20 am — Dec 6 2:20 am, Düren, Weather by CustomWeather, © 2016

Note: Actual official high and low records may vary slightly from our data, if they occured in-between our weather recording intervals... More about our weather records

Advertising

Düren Weather History for the Previous 24 Hours

Scroll right to see more
 ConditionsComfort  
Time TempWeatherWind HumidityBarometerVisibility
2:20 am
Tue, Dec 6
28 °FPassing clouds.2 mph93%30.36 "HgN/A
1:20 am28 °FPassing clouds.2 mph93%30.33 "HgN/A
12:20 am27 °FPassing clouds.2 mph100%30.33 "HgN/A
11:20 pm
Mon, Dec 5
27 °FPassing clouds.2 mph100%30.33 "HgN/A
10:20 pm30 °FPassing clouds.2 mph86%30.33 "HgN/A
9:20 pm30 °FPassing clouds.3 mph86%30.33 "HgN/A
8:20 pm30 °FPassing clouds.2 mph86%30.33 "HgN/A
7:20 pm32 °FPassing clouds.5 mph87%30.30 "HgN/A
6:20 pm32 °FPassing clouds.5 mph87%30.30 "HgN/A
5:20 pm32 °FPassing clouds.3 mph87%30.30 "HgN/A
4:20 pm36 °FPassing clouds.2 mph75%30.30 "HgN/A
3:20 pm37 °FPassing clouds.3 mph70%30.30 "HgN/A
2:20 pm39 °FPassing clouds.5 mph65%30.30 "HgN/A
1:20 pm37 °FPassing clouds.6 mph70%30.30 "HgN/A
12:20 pm36 °FPassing clouds.5 mph75%30.30 "HgN/A
11:20 am34 °FPassing clouds.5 mph75%30.30 "HgN/A
10:20 am30 °FPassing clouds.5 mph80%30.30 "HgN/A
9:20 am28 °FPassing clouds.2 mph80%30.30 "HgN/A
8:20 am28 °FPassing clouds.3 mph80%30.30 "HgN/A
7:20 am28 °FPassing clouds.2 mph80%30.27 "HgN/A
6:20 am28 °FPassing clouds.5 mph80%30.27 "HgN/A
5:20 am28 °FPassing clouds.5 mph80%30.27 "HgN/A
4:20 am28 °FPassing clouds.6 mph80%30.27 "HgN/A
Weather by CustomWeather, © 2016

See weather overviewHow to use our weather pages